Regional Weather Roundup
Issued by NWS

Home | Current Version | Previous Version | Graphics & Text | Print | Product List | Glossary Off
Versions: 1 2 3 4 5 6 7 8 9 10 11 12 13 14 15 16 17 18 19 20 21 22 23 24 25 26 27 28 29 30 31 32 33 34 35 36 37 38 39 40 41 42 43 44 45 46 47 48 49 50

000
ASUS43 KMKX 211600
RWRWI

WISCONSIN REGIONAL WEATHER ROUNDUP
NATIONAL WEATHER SERVICE MILWAUKEE/SULLIVAN WI
1100 AM CDT THU SEP 21 2017

NOTE: "FAIR" INDICATES FEW OR NO CLOUDS BELOW 12,000 FEET WITH NO
SIGNIFICANT WEATHER AND/OR OBSTRUCTIONS TO VISIBILITY.

WIZ001-002-006>008-014>016-023>028-211700-
NORTHWEST WISCONSIN

CITY           SKY/WX    TMP DP  RH WIND       PRES   REMARKS
SUPERIOR ARPT  SUNNY     62  56  80 NE6       30.03S
ASHLAND        SUNNY     66  56  70 N7        30.04S
HAYWARD        SUNNY     68  55  63 SE12      30.02F
SIREN          SUNNY     66  52  60 SE6       30.00F
CUMBERLAND     SUNNY     64  54  68 SE8       30.01F
RICE LAKE      SUNNY     70  55  60 SE7       30.02F
CHETEK         SUNNY     66  57  72 E7        30.02S
LADYSMITH      SUNNY     69  58  66 E10       30.04F
EAU CLAIRE     NOT AVBL
MENOMONIE      SUNNY     69  59  71 E5        29.99F
NEW RICHMOND   SUNNY     69  56  63 SE7       29.99S
OSCEOLA        SUNNY     69  56  61 SE13      30.01S
$$

WIZ003>005-009-010-017-018-211700-
NORTH CENTRAL WISCONSIN

CITY           SKY/WX    TMP DP  RH WIND       PRES   REMARKS
MANITOWISH WTR PTSUNNY   66  61  82 E5        30.06S
ARBOR VITAE    SUNNY     67  59  74 SE8       30.06S
WOODRUFF       SUNNY     67  59  74 SE8       30.06S
RHINELANDER    SUNNY     69  63  81 SE9       30.07F
EAGLE RIVER    MOSUNNY   67  55  65 SE6       30.07S
LAND O LAKES   MOSUNNY   68  56  65 E6        30.09S
PHILLIPS       SUNNY     68  60  75 SE7       30.04F
TOMAHAWK         N/A     69  60  73 SE5         N/A
MEDFORD        PTSUNNY   68  62  78 E10       30.03F
MERRILL        SUNNY     72  64  78 SE7       30.05F
$$

WIZ029-030-035-036-043>047-211700-
CENTRAL WISCONSIN

CITY           SKY/WX    TMP DP  RH WIND       PRES   REMARKS
WAUSAU         MOSUNNY   72  64  76 SE9       30.02F
MOSINEE        CLOUDY    70  66  88 SE7       30.05S
MARSHFIELD     CLOUDY    68  65  90 E13       30.02F FOG
STEVENS POINT  CLOUDY    67  66  97 E8        30.04S
WAUPACA        CLOUDY    70  69  97 E7        30.04S FOG
WAUTOMA        CLOUDY    69  68  96 E7        30.03F FOG
WISC RAPIDS    CLOUDY    68  32  26 SE9       30.04S HAZE
CAMP DOUGLAS   NOT AVBL
$$

WIZ011>013-019>022-031-037>040-048>050-211700-
NORTHEAST WISCONSIN

CITY           SKY/WX    TMP DP  RH WIND       PRES   REMARKS
ANTIGO         SUNNY     69  62  77 E10G16    30.06F
SHAWANO        PTSUNNY   74  65  75 NE6       30.04S
OCONTO         CLOUDY    70  64  81 E5        30.03F
STURGEON BAY   CLOUDY    70  66  87 CALM      30.05R
GREEN BAY      CLOUDY    70  67  90 NE5       30.04S
MANITOWOC      CLOUDY    75  69  81 SW3       30.04S
APPLETON       CLOUDY    70  68  94 E5        30.03S FOG
CLINTONVILLE   NOT AVBL
OSHKOSH        CLOUDY    73  69  87 SE6       30.03S
$$

WIZ032>034-041-042-053>061-211700-
SOUTHWEST WISCONSIN

CITY           SKY/WX    TMP DP  RH WIND       PRES   REMARKS
LA CROSSE      NOT AVBL
SPARTA         CLOUDY    62  60  94 E6        30.01S
VIROQUA        CLOUDY    71  68  90 E8        30.02S
BOSCOBEL       CLOUDY    78  69  73 N5        29.99F HX  80
PRAIRIE DU CHI CLOUDY    73  68  83 CALM      29.98F
PLATTEVILLE    PTSUNNY   74  70  87 E6        30.03S
$$

WIZ056-057-062-063-064-067-068-211700-
SOUTH CENTRAL WISCONSIN

CITY           SKY/WX    TMP DP  RH WIND       PRES   REMARKS
REEDSBURG      CLOUDY    71  71 100 SE3       30.03R
BARABOO/DELLS  CLOUDY    71  69  95 E3        30.03  FOG
LONE ROCK      PTSUNNY   75  72  90 E7        30.01S
MINERAL POINT  CLOUDY    77  70  78 CALM      30.04R
MADISON        CLOUDY    74  70  87 SE5       30.03S
MIDDLETON      CLOUDY    75  74  98 SE6       30.04S
WATERTOWN      CLOUDY    75  72  90 SE3       30.03F
MONROE         CLOUDY    73  64  73 E3        30.05R
JANESVILLE     PTSUNNY   84  63  48 E3        30.02S HX  85
$$

WIZ051-052-058>065-066-070>072-211700-
SOUTHEAST WISCONSIN

CITY           SKY/WX    TMP DP  RH WIND       PRES   REMARKS
MILWAUKEE      CLOUDY    80  69  69 CALM      30.03R HX  83
WAUKESHA       MOSUNNY   75  66  73 NE5       30.05S
MILWAUKEE/TIMM SUNNY     79  64  61 CALM      30.04S HX  81
RACINE         MOSUNNY   81  69  67 VRB6      30.05R HX  84
BURLINGTON     CLOUDY    85  65  50 CALM      30.03S HX  87
KENOSHA        MOSUNNY   85  69  58 VRB7      30.04R HX  89
FOND DU LAC    CLOUDY    76  68  76 SE5       30.03S
SHEBOYGAN      CLOUDY    77  70  79 NE3       30.03R
WEST BEND        N/A     75  68  78 CALM      30.05R
JUNEAU         CLOUDY    73  69  86 E5        30.05S
$$

LSZ147-162-211700-
LAKE SUPERIOR

STATION/POSITION TIME  TEMP    WIND        PRES    WAVE
                       AIR SEA DIR/SP/G            HT/PER
                 (UTC) (F)     (DEG/KT/KT) (MB)    (FT/S)
W MID LAKE BUOY  1450   54 54   70/  4/  4 1017.7S   1
DEVILS ISLAND    1500   59      60/  4/  6 1017.6R
SAXON HARBOR     1540   62     360/  4/  5 1016.9R
$$

LMZ867-665-643>646-211700-
LAKE MICHIGAN

STATION/POSITION TIME  TEMP    WIND        PRES    WAVE
                       AIR SEA DIR/SP/G            HT/PER
                 (UTC) (F)     (DEG/KT/KT) (MB)    (FT/S)
S GREEN BAY BUOY 1530   67 66   40/  8/ 10 1016.9F
N MID LAKE BUOY  1450   66 65   30/  8/  8 1016.9R   2/ 6
NORTHPORT PIER   1540   67     320/  7/  9 1016.9R
KEWAUNEE LAKESHO 1530   66      20/  3/  6 1016.3R
SHEBOYGAN LAKESH 1500   70     360/  7/  8 1016.1S
PORT WASHINGTON  1530   73      60/  2/  5 1017.6S
ATWATER BUOY     1409   68 67  280/  4/  6 1017.3R
MILWAUKEE LAKESH 1540   71     120/  1/  2   N/A
S MID LAKE BUOY  1450   71 69  240/  8/ 10 1016.9R   1/ 3
KENOSHA   LAKESH 1500   74     160/  3/  5 1016.9
$$

TC  - TEMPERATURE IN CELSIUS
VSB - VISIBILITY IN STATUTE MILES
WCI - WIND CHILL INDEX
HX  - HEAT INDEX





USA.gov is the U.S. government's official web portal to all federal, state and local government web resources and services.